SCP
-0 -0 -0 -0 -0 -0 0 0 0 0 0 0 0 0 0 0 0 0 0 0 0 0 0 0 0 0 0 0 0 0 0 0 0 0 0 0 0 0 0 0 0 0 0 0 0
-0 -0 -0 -0 -0 -0 -0 -0 0 0 0 0 0 0 0 0 0 0 0 0 0 0 0 0 0 0 0 0 0 0 0 0 0 0 0 0 0 0 0 0 0 0 0 0 0
-0 -0 -0 -0 -0 -0 -0 -0 -0 0 0 0 0 0 0 0 0 0 0 0 0 0 0 0 0 0 0 0 0 0 0 0 0 0 0 0 0 0 0 0 0 0 0 0 0
-0 -0 -0 -0 -0 -0 -0 -0 -0 0 0 0 0 0 0 0 0 0 0 0 0 0 0 0 0 0 0 0 0 0 0 0 0 0 0 0 0 0 0 0 0 0 0 0 0
-0 -0 -0 -0 -0 -0 -0 -0 -0 -0 -0 0 0 0 0 0 0 0 0 0 0 0 0 0 0 0 0 0 0 0 0 0 0 0 0 0 0 0 0 0 0 0 0 0 0
-0 -0 -0 -0 -0 -0 -0 -0 -0 0 0 0 0 0 0 0 0 0 0 0 0 0 0 0 0 0 0 0 0 0 0 0 0 0 0 0 0 0 0 0 0 0 0 0 0
-0 -0 -0 -0 -0 -0 -0 -0 -0 0 0 0 0 0 0 0 0 0 0 0 0 0 0 0 0 0 0 0 0 0 0 0 0 0 0 0 0 0 0 0 0 0 0 0 0
-0 -0 -0 -0 -0 -0 -0 -0 -0 -0 -0 -0 0 0 0 0 0 0 0 0 0 0 0 0 0 0 0 0 0 0 0 0 0 0 0 0 0 0 0 0 0 0 0 0 0
-0 -0 -0 -0 -0 -0 0 0 -0 0 0 0 0 0 0 0 0 0 0 0 0 0 0 0 0 0 0 0 0 0 0 0 0 0 0 0 0 0 0 0 0 0 0 0 0
-0 -0 -0 -0 -0 0 0 0 0 0 0 0 0 0 0 0 0 0 0 0 0 0 0 0 0 0 0 0 0 0 0 0 0 0 0 0 0 0 0 0 0 0 0 0 0
-0 -0 -0 -0 -0 0 0 0 0 0 0 0 0 0 0 0 0 0 0 0 0 0 0 0 0 0 0 0 0 0 0 0 0 0 0 0 0 0 0 0 0 0 0 0 0
-0 -0 -0 -0 -0 0 0 0 0 0 0 0 0 0 0 0 0 0 0 0 0 0 0 0 0 0 0 0 0 0 0 0 0 0 0 0 0 0 0 0 0 0 0 0 0
-0 -0 -0 -0 0 0 0 0 0 0 0 0 0 0 0 0 0 0 0 0 0 0 0 0 0 0 0 0 0 0 0 0 0 0 0 0 0 0 0 0 0 0 0 0 0
0 -0 -0 -0 0 0 0 0 0 0 0 0 0 0 0 0 0 0 0 0 0 0 0 0 0 0 0 0 0 0 0 0 0 0 0 0 0 0 0 0 0 0 0 0 0
-0 -0 0 0 0 0 0 0 0 0 0 0 0 0 0 0 0 0 0 0 0 0 0 0 0 0 0 0 0 0 0 0 0 0 0 0 0 0 0 0 0 0 0 0 0
-0 -0 -0 0 0 0 0 0 0 0 0 0 0 0 0 -0 0 0 0 0 0 0 0 0 0 0 0 0 0 0 0 0 0 0 0 0 0 0 0 0 0 0 0 0 0
-0 -0 0 0 0 0 0 0 0 0 0 0 0 0 0 0 0 0 0 0 0 0 0 0 0 0 0 0 0 0 0 0 0 0 0 0 0 0 0 0 0 0 0 0 0
-0 -0 0 0 -0 -0 0 0 0 0 0 0 0 0 0 0 0 0 0 0 0 0 0 0 0 0 0 0 0 0 0 0 0 0 0 0 0 0 0 0 0 0 0 0 0
-0 0 0 0 -0 -0 0 0 0 0 0 0 0 0 0 0 0 0 0 0 0 0 0 0 0 0 0 0 0 0 0 0 0 0 0 0 0 0 0 0 0 0 0 0 0
0 0 0 -0 0 0 0 0 0 0 0 0 0 0 0 0 0 0 0 0 0 0 0 0 0 0 0 0 0 0 0 0 0 0 0 0 0 0 0 0 0 0 0 0 0
0 0 0 0 0 0 0 0 0 0 0 0 0 0 0 0 0 0 0 0 0 0 0 0 0 0 0 0 0 0 0 0 0 0 0 0 0 0 0 0 0 0 0 0 0
0 0 0 0 0 0 0 0 0 0 0 0 0 0 0 0 0 0 0 0 0 0 0 0 0 0 0 0 0 0 0 0 0 0 0 0 0 0 0 0 0 0 0 0 0
0 0 0 0 0 0 0 0 0 0 0 0 0 0 0 0 0 0 0 0 0 0 0 0 0 0 0 0 0 0 0 0 0 0 0 0 0 0 0 0 0 0 0 0 0
0 0 0 0 0 0 0 0 0 0 0 0 0 0 0 0 0 0 0 0 0 0 0 0 0 0 0 0 0 0 0 0 0 0 0 0 0 0 0 0 0 0 0 0 0
0 0 0 0 0 0 0 0 0 0 0 0 0 0 0 0 0 0 0 0 0 0 0 0 0 0 0 0 0 0 0 0 0 0 0 0 0 0 0 0 0 0 0 0 0
0 0 0 0 0 0 0 0 0 0 0 0 0 0 0 0 0 0 0 0 0 0 0 0 0 0 0 0 0 0 0 0 0 0 0 0 0 0 0 0 0 0 0 0 0
0 0 0 0 0 0 0 0 0 0 0 0 0 0 0 0 0 0 0 0 0 0 0 0 0 0 0 0 0 0 0 0 0 0 0 0 0 0 0 0 0 0 0 0 0
Wind_Speed_500mb
22 20 17 15 15 15 14 11 10 9 9 8 8 9 11 14 19 25 28 16 11 27 15 13 15 18 22 17 14 14 8 14 15 16 10 6 6 19 13 24 16 19 17 41 38
34 23 18 16 13 12 12 12 10 10 11 10 9 9 10 14 21 20 12 12 13 27 20 15 18 21 12 12 11 10 9 15 10 16 16 18 15 26 15 29 22 30 28 30 28
38 32 23 17 15 13 10 10 11 11 10 10 10 10 10 13 6 1 5 16 18 19 14 12 19 19 10 14 11 11 14 11 13 23 21 26 25 19 21 26 30 28 39 37 29
42 34 28 22 16 13 11 10 8 8 8 8 9 9 10 7 6 7 10 17 16 15 17 22 21 13 10 13 14 10 15 14 8 16 15 20 20 18 24 34 38 35 39 39 33
48 39 31 23 20 14 10 9 8 7 5 6 6 8 10 9 9 13 12 15 17 20 26 21 18 12 10 10 12 9 7 11 17 20 21 14 28 23 16 32 23 28 28 28 29
55 43 35 28 20 14 12 10 10 8 7 6 6 7 7 9 15 19 16 16 24 28 21 17 10 10 11 7 9 11 9 14 16 20 17 16 27 5 10 24 33 27 24 22 20
58 51 41 32 21 14 13 12 11 10 8 7 7 9 17 19 18 22 24 20 20 21 18 10 8 5 13 10 7 5 9 13 25 30 16 7 22 15 25 17 19 21 27 26 23
56 56 47 36 22 16 17 16 14 13 11 10 9 12 15 12 28 27 27 24 22 23 15 6 2 1 0 9 5 4 4 12 2 9 4 13 29 19 7 1 13 20 19 21 20
48 54 52 42 27 17 15 18 22 20 18 15 13 10 14 8 22 32 25 23 23 16 8 9 6 4 5 6 6 1 10 7 9 8 6 5 6 24 27 20 23 20 22 27 27
44 48 51 48 32 21 19 24 16 18 15 16 19 12 10 6 8 31 30 25 17 14 9 7 7 8 6 10 9 7 5 6 13 4 17 26 29 24 39 30 27 29 26 24 27
42 47 49 52 42 19 17 14 11 7 12 18 9 8 7 10 9 19 35 30 19 3 9 3 12 23 22 17 12 10 11 16 23 20 9 20 21 24 31 26 30 38 32 27 30
46 47 48 51 48 17 11 6 7 16 21 39 42 51 47 10 2 12 34 22 14 17 9 7 23 26 13 15 17 16 18 20 21 15 12 23 26 29 22 22 31 35 34 33 34
47 49 52 47 37 21 14 8 11 23 11 15 12 15 20 40 15 17 33 28 12 17 19 21 9 12 18 17 17 16 20 17 23 23 14 17 27 20 17 15 25 34 39 38 41
53 53 50 45 21 31 18 14 12 16 7 7 6 4 14 15 12 30 34 24 8 24 16 17 27 22 22 23 23 22 21 23 19 15 22 4 21 29 21 23 20 33 37 30 28
56 51 49 38 40 23 10 9 11 1 8 7 7 10 18 16 4 14 36 22 22 14 12 10 8 9 15 19 23 16 9 15 19 29 14 24 16 12 8 25 29 26 16 16 21
62 53 52 37 29 13 15 12 4 4 8 5 9 8 12 9 3 8 14 17 9 14 16 25 8 9 16 8 22 8 16 15 4 9 23 33 28 19 15 17 10 8 11 13 27
68 52 31 21 8 6 21 16 5 7 11 7 7 2 6 4 9 4 9 19 19 11 21 27 37 35 24 28 28 19 16 15 16 17 24 4 13 21 20 28 22 8 17 23 33
57 25 15 7 11 28 22 5 6 5 8 10 8 4 11 21 6 11 0 10 14 19 16 14 18 12 13 27 26 15 19 19 23 22 29 18 16 14 14 17 2 11 17 28 41
29 30 32 14 19 26 11 4 3 7 9 13 11 3 2 4 20 18 19 12 5 8 11 9 11 5 5 2 13 10 16 9 23 22 19 20 29 21 23 15 3 18 32 41 46
19 14 33 21 19 12 4 2 5 7 7 8 4 10 3 13 8 19 8 23 9 5 7 6 17 7 5 3 1 10 7 11 10 16 28 17 26 21 15 6 16 21 39 51 53
12 7 23 3 7 4 2 3 4 10 5 5 6 4 10 8 10 9 9 4 3 13 5 7 11 18 6 12 30 17 14 5 8 8 12 23 13 5 7 10 16 22 38 34 35
12 3 22 4 5 4 3 11 17 16 6 4 8 9 9 13 10 12 19 13 14 22 17 21 8 20 29 28 11 9 23 24 17 13 12 11 19 15 19 9 12 29 25 23 26
23 12 21 6 5 5 8 7 11 17 13 2 6 8 11 12 9 26 15 13 18 15 9 5 7 10 9 13 3 15 15 12 8 9 29 24 20 7 4 25 39 25 24 26 31
14 6 17 24 13 7 10 7 10 24 9 6 1 4 6 11 17 10 7 10 16 28 26 20 10 26 22 18 9 20 24 16 15 16 30 34 48 44 39 34 30 28 22 26 32
14 6 8 8 11 11 8 9 17 11 2 11 4 17 13 9 13 16 19 24 24 36 25 6 11 26 32 34 32 35 40 41 45 47 44 45 49 48 40 35 26 20 24 32 39
7 5 7 5 10 11 3 3 11 12 9 3 4 13 16 10 11 8 8 8 14 7 8 12 9 18 28 27 30 40 48 46 45 44 46 45 51 38 26 12 18 27 32 38 47
6 1 3 4 7 7 5 8 14 22 16 21 16 14 17 22 26 31 40 36 20 8 9 11 12 16 30 24 20 25 35 36 34 35 28 33 34 8 18 19 27 39 42 50 49
Wind_Direction_500mb
351 342 338 340 333 317 304 294 286 284 279 276 262 256 263 272 275 276 276 258 224 206 182 156 156 161 170 149 143 151 183 221 226 212 240 164 307 305 299 286 295 287 291 309 300
0 353 345 337 330 321 314 305 300 295 285 277 268 266 279 287 291 277 238 211 191 179 183 176 164 147 134 145 155 180 215 220 222 233 257 277 286 293 289 290 281 282 289 318 321
10 360 348 341 334 327 321 318 314 304 292 278 268 263 277 308 309 227 187 172 160 163 181 184 169 152 128 151 166 176 230 211 234 236 249 273 268 265 271 280 278 287 301 311 306
11 8 358 343 337 330 328 326 326 322 315 295 271 263 275 297 157 145 142 174 180 183 167 149 150 142 150 176 175 199 234 215 243 244 257 260 277 264 244 260 282 281 288 290 286
12 10 7 359 343 336 335 339 341 338 325 306 282 266 274 263 227 172 149 164 173 160 154 152 154 151 166 160 155 212 236 223 257 271 259 249 258 259 254 264 288 304 297 299 277
15 12 9 3 353 346 340 338 341 335 325 312 295 267 245 253 195 181 169 152 149 149 152 146 151 164 126 156 207 182 234 273 283 265 263 256 264 210 248 293 289 290 289 288 294
20 14 7 1 358 347 343 333 336 347 337 310 288 275 261 236 195 191 184 179 171 153 150 142 125 148 148 162 154 173 265 283 258 267 254 214 263 244 270 273 275 294 290 280 278
18 14 8 0 350 342 336 332 320 308 312 305 288 286 253 206 199 188 187 192 187 181 170 171 138 55 129 120 62 236 252 275 337 315 298 212 270 297 284 359 295 302 309 312 296
12 15 9 1 347 331 327 327 309 295 285 278 271 274 265 224 209 191 192 190 178 187 213 210 257 141 140 193 240 99 249 229 301 293 255 255 298 316 294 299 301 302 306 307 305
358 5 8 3 346 322 315 327 313 296 274 270 258 285 247 145 138 196 196 185 166 160 146 156 150 180 150 197 240 161 222 242 276 242 307 288 281 280 287 305 292 298 294 290 300
344 346 352 357 349 314 304 331 339 309 282 240 260 238 253 301 252 200 202 198 201 138 198 86 218 222 222 219 248 258 262 275 277 279 267 281 281 289 295 293 281 289 282 275 282
334 335 337 344 350 306 277 274 291 308 295 286 265 255 249 215 275 189 194 179 181 206 152 214 248 245 210 212 225 234 267 275 276 268 214 293 287 290 274 269 273 270 276 275 283
327 327 327 337 348 5 275 256 299 325 283 296 251 244 236 218 232 211 181 184 184 193 200 226 217 99 194 218 223 231 248 256 278 314 258 281 276 263 265 238 258 256 256 270 276
325 318 315 321 326 329 307 214 304 324 303 266 219 186 161 153 216 215 193 173 191 217 198 242 256 238 229 245 231 261 238 256 268 297 295 351 288 291 276 254 239 254 256 275 304
329 321 312 308 302 299 277 219 316 23 301 121 94 130 160 182 120 199 197 202 206 183 187 219 192 168 210 238 181 253 212 255 266 281 275 262 268 260 225 262 267 267 286 337 341
326 324 307 300 285 286 223 206 158 226 255 81 119 141 151 243 355 105 182 210 216 208 236 255 233 254 256 239 200 278 278 278 238 252 257 263 253 278 259 288 280 249 341 6 351
336 330 307 280 234 156 160 168 163 228 336 40 44 181 176 194 236 244 173 196 214 199 236 256 253 254 246 265 257 245 257 276 265 238 265 325 243 257 273 266 269 313 359 352 352
350 12 27 57 185 161 154 127 201 2 19 360 341 17 81 25 32 359 22 233 233 241 264 263 267 211 193 219 253 213 216 246 270 273 284 298 257 267 282 280 164 43 5 343 341
12 47 39 39 151 160 154 168 173 37 351 343 332 72 255 244 319 351 342 310 325 189 230 220 248 287 237 290 210 182 216 278 271 264 269 257 267 271 248 242 183 349 352 349 342
359 41 31 80 101 146 83 176 109 52 23 13 84 43 341 345 288 175 246 303 328 2 354 328 286 255 262 270 216 249 165 230 229 278 275 255 277 270 255 198 346 347 343 340 333
5 78 10 124 54 61 88 29 20 17 83 40 129 87 78 4 315 298 255 241 320 272 308 279 251 253 293 256 264 234 232 214 276 262 272 292 273 206 243 337 332 345 328 318 318
16 59 11 118 45 29 51 333 345 360 39 120 134 148 176 166 242 248 230 239 348 355 314 301 290 263 261 270 293 271 268 263 245 237 242 276 268 248 265 339 329 313 309 309 315
352 328 10 113 69 33 345 337 8 16 355 344 195 184 165 195 232 252 254 272 262 227 248 334 248 271 260 237 206 245 239 246 244 262 250 260 266 172 216 298 308 300 301 307 314
8 348 9 54 52 30 3 6 346 347 341 3 21 127 199 220 218 272 241 287 299 290 275 342 244 239 255 290 298 286 275 253 245 245 256 245 271 278 289 298 300 293 296 310 317
33 49 11 360 21 13 352 322 319 327 256 293 260 238 241 242 243 240 245 267 268 256 278 263 249 251 261 267 275 272 265 262 256 250 254 269 279 284 296 298 282 283 297 309 314
66 29 14 45 340 341 282 295 320 350 294 318 239 292 280 282 250 285 267 268 247 220 269 211 262 270 263 273 272 276 268 260 254 255 261 270 274 288 295 250 261 282 298 306 311
44 91 22 207 347 330 333 356 319 337 294 264 291 330 277 268 293 284 269 260 236 224 218 252 252 279 277 289 290 272 260 250 250 248 254 258 276 289 270 276 290 294 300 300 299
Wind_Speed_850mb
22 20 17 15 15 15 14 11 10 9 9 8 8 9 11 14 19 25 28 16 11 27 15 13 15 18 22 17 14 14 8 14 15 16 10 6 6 19 13 24 16 19 17 41 38
34 23 18 16 13 12 12 12 10 10 11 10 9 9 10 14 21 20 12 12 13 27 20 15 18 21 12 12 11 10 9 15 10 16 16 18 15 26 15 29 22 30 28 30 28
38 32 23 17 15 13 10 10 11 11 10 10 10 10 10 13 6 1 5 16 18 19 14 12 19 19 10 14 11 11 14 11 13 23 21 26 25 19 21 26 30 28 39 37 29
42 34 28 22 16 13 11 10 8 8 8 8 9 9 10 7 6 7 10 17 16 15 17 22 21 13 10 13 14 10 15 14 8 16 15 20 20 18 24 34 38 35 39 39 33
48 39 31 23 20 14 10 9 8 7 5 6 6 8 10 9 9 13 12 15 17 20 26 21 18 12 10 10 12 9 7 11 17 20 21 14 28 23 16 32 23 28 28 28 29
55 43 35 28 20 14 12 10 10 8 7 6 6 7 7 9 15 19 16 16 24 28 21 17 10 10 11 7 9 11 9 14 16 20 17 16 27 5 10 24 33 27 24 22 20
58 51 41 32 21 14 13 12 11 10 8 7 7 9 17 19 18 22 24 20 20 21 18 10 8 5 13 10 7 5 9 13 25 30 16 7 22 15 25 17 19 21 27 26 23
56 56 47 36 22 16 17 16 14 13 11 10 9 12 15 12 28 27 27 24 22 23 15 6 2 1 0 9 5 4 4 12 2 9 4 13 29 19 7 1 13 20 19 21 20
48 54 52 42 27 17 15 18 22 20 18 15 13 10 14 8 22 32 25 23 23 16 8 9 6 4 5 6 6 1 10 7 9 8 6 5 6 24 27 20 23 20 22 27 27
44 48 51 48 32 21 19 24 16 18 15 16 19 12 10 6 8 31 30 25 17 14 9 7 7 8 6 10 9 7 5 6 13 4 17 26 29 24 39 30 27 29 26 24 27
42 47 49 52 42 19 17 14 11 7 12 18 9 8 7 10 9 19 35 30 19 3 9 3 12 23 22 17 12 10 11 16 23 20 9 20 21 24 31 26 30 38 32 27 30
46 47 48 51 48 17 11 6 7 16 21 39 42 51 47 10 2 12 34 22 14 17 9 7 23 26 13 15 17 16 18 20 21 15 12 23 26 29 22 22 31 35 34 33 34
47 49 52 47 37 21 14 8 11 23 11 15 12 15 20 40 15 17 33 28 12 17 19 21 9 12 18 17 17 16 20 17 23 23 14 17 27 20 17 15 25 34 39 38 41
53 53 50 45 21 31 18 14 12 16 7 7 6 4 14 15 12 30 34 24 8 24 16 17 27 22 22 23 23 22 21 23 19 15 22 4 21 29 21 23 20 33 37 30 28
56 51 49 38 40 23 10 9 11 1 8 7 7 10 18 16 4 14 36 22 22 14 12 10 8 9 15 19 23 16 9 15 19 29 14 24 16 12 8 25 29 26 16 16 21
62 53 52 37 29 13 15 12 4 4 8 5 9 8 12 9 3 8 14 17 9 14 16 25 8 9 16 8 22 8 16 15 4 9 23 33 28 19 15 17 10 8 11 13 27
68 52 31 21 8 6 21 16 5 7 11 7 7 2 6 4 9 4 9 19 19 11 21 27 37 35 24 28 28 19 16 15 16 17 24 4 13 21 20 28 22 8 17 23 33
57 25 15 7 11 28 22 5 6 5 8 10 8 4 11 21 6 11 0 10 14 19 16 14 18 12 13 27 26 15 19 19 23 22 29 18 16 14 14 17 2 11 17 28 41
29 30 32 14 19 26 11 4 3 7 9 13 11 3 2 4 20 18 19 12 5 8 11 9 11 5 5 2 13 10 16 9 23 22 19 20 29 21 23 15 3 18 32 41 46
19 14 33 21 19 12 4 2 5 7 7 8 4 10 3 13 8 19 8 23 9 5 7 6 17 7 5 3 1 10 7 11 10 16 28 17 26 21 15 6 16 21 39 51 53
12 7 23 3 7 4 2 3 4 10 5 5 6 4 10 8 10 9 9 4 3 13 5 7 11 18 6 12 30 17 14 5 8 8 12 23 13 5 7 10 16 22 38 34 35
12 3 22 4 5 4 3 11 17 16 6 4 8 9 9 13 10 12 19 13 14 22 17 21 8 20 29 28 11 9 23 24 17 13 12 11 19 15 19 9 12 29 25 23 26
23 12 21 6 5 5 8 7 11 17 13 2 6 8 11 12 9 26 15 13 18 15 9 5 7 10 9 13 3 15 15 12 8 9 29 24 20 7 4 25 39 25 24 26 31
14 6 17 24 13 7 10 7 10 24 9 6 1 4 6 11 17 10 7 10 16 28 26 20 10 26 22 18 9 20 24 16 15 16 30 34 48 44 39 34 30 28 22 26 32
14 6 8 8 11 11 8 9 17 11 2 11 4 17 13 9 13 16 19 24 24 36 25 6 11 26 32 34 32 35 40 41 45 47 44 45 49 48 40 35 26 20 24 32 39
7 5 7 5 10 11 3 3 11 12 9 3 4 13 16 10 11 8 8 8 14 7 8 12 9 18 28 27 30 40 48 46 45 44 46 45 51 38 26 12 18 27 32 38 47
6 1 3 4 7 7 5 8 14 22 16 21 16 14 17 22 26 31 40 36 20 8 9 11 12 16 30 24 20 25 35 36 34 35 28 33 34 8 18 19 27 39 42 50 49
Wind_Direction_850mb
351 342 338 340 333 317 304 294 286 284 279 276 262 256 263 272 275 276 276 258 224 206 182 156 156 161 170 149 143 151 183 221 226 212 240 164 307 305 299 286 295 287 291 309 300
0 353 345 337 330 321 314 305 300 295 285 277 268 266 279 287 291 277 238 211 191 179 183 176 164 147 134 145 155 180 215 220 222 233 257 277 286 293 289 290 281 282 289 318 321
10 360 348 341 334 327 321 318 314 304 292 278 268 263 277 308 309 227 187 172 160 163 181 184 169 152 128 151 166 176 230 211 234 236 249 273 268 265 271 280 278 287 301 311 306
11 8 358 343 337 330 328 326 326 322 315 295 271 263 275 297 157 145 142 174 180 183 167 149 150 142 150 176 175 199 234 215 243 244 257 260 277 264 244 260 282 281 288 290 286
12 10 7 359 343 336 335 339 341 338 325 306 282 266 274 263 227 172 149 164 173 160 154 152 154 151 166 160 155 212 236 223 257 271 259 249 258 259 254 264 288 304 297 299 277
15 12 9 3 353 346 340 338 341 335 325 312 295 267 245 253 195 181 169 152 149 149 152 146 151 164 126 156 207 182 234 273 283 265 263 256 264 210 248 293 289 290 289 288 294
20 14 7 1 358 347 343 333 336 347 337 310 288 275 261 236 195 191 184 179 171 153 150 142 125 148 148 162 154 173 265 283 258 267 254 214 263 244 270 273 275 294 290 280 278
18 14 8 0 350 342 336 332 320 308 312 305 288 286 253 206 199 188 187 192 187 181 170 171 138 55 129 120 62 236 252 275 337 315 298 212 270 297 284 359 295 302 309 312 296
12 15 9 1 347 331 327 327 309 295 285 278 271 274 265 224 209 191 192 190 178 187 213 210 257 141 140 193 240 99 249 229 301 293 255 255 298 316 294 299 301 302 306 307 305
358 5 8 3 346 322 315 327 313 296 274 270 258 285 247 145 138 196 196 185 166 160 146 156 150 180 150 197 240 161 222 242 276 242 307 288 281 280 287 305 292 298 294 290 300
344 346 352 357 349 314 304 331 339 309 282 240 260 238 253 301 252 200 202 198 201 138 198 86 218 222 222 219 248 258 262 275 277 279 267 281 281 289 295 293 281 289 282 275 282
334 335 337 344 350 306 277 274 291 308 295 286 265 255 249 215 275 189 194 179 181 206 152 214 248 245 210 212 225 234 267 275 276 268 214 293 287 290 274 269 273 270 276 275 283
327 327 327 337 348 5 275 256 299 325 283 296 251 244 236 218 232 211 181 184 184 193 200 226 217 99 194 218 223 231 248 256 278 314 258 281 276 263 265 238 258 256 256 270 276
325 318 315 321 326 329 307 214 304 324 303 266 219 186 161 153 216 215 193 173 191 217 198 242 256 238 229 245 231 261 238 256 268 297 295 351 288 291 276 254 239 254 256 275 304
329 321 312 308 302 299 277 219 316 23 301 121 94 130 160 182 120 199 197 202 206 183 187 219 192 168 210 238 181 253 212 255 266 281 275 262 268 260 225 262 267 267 286 337 341
326 324 307 300 285 286 223 206 158 226 255 81 119 141 151 243 355 105 182 210 216 208 236 255 233 254 256 239 200 278 278 278 238 252 257 263 253 278 259 288 280 249 341 6 351
336 330 307 280 234 156 160 168 163 228 336 40 44 181 176 194 236 244 173 196 214 199 236 256 253 254 246 265 257 245 257 276 265 238 265 325 243 257 273 266 269 313 359 352 352
350 12 27 57 185 161 154 127 201 2 19 360 341 17 81 25 32 359 22 233 233 241 264 263 267 211 193 219 253 213 216 246 270 273 284 298 257 267 282 280 164 43 5 343 341
12 47 39 39 151 160 154 168 173 37 351 343 332 72 255 244 319 351 342 310 325 189 230 220 248 287 237 290 210 182 216 278 271 264 269 257 267 271 248 242 183 349 352 349 342
359 41 31 80 101 146 83 176 109 52 23 13 84 43 341 345 288 175 246 303 328 2 354 328 286 255 262 270 216 249 165 230 229 278 275 255 277 270 255 198 346 347 343 340 333
5 78 10 124 54 61 88 29 20 17 83 40 129 87 78 4 315 298 255 241 320 272 308 279 251 253 293 256 264 234 232 214 276 262 272 292 273 206 243 337 332 345 328 318 318
16 59 11 118 45 29 51 333 345 360 39 120 134 148 176 166 242 248 230 239 348 355 314 301 290 263 261 270 293 271 268 263 245 237 242 276 268 248 265 339 329 313 309 309 315
352 328 10 113 69 33 345 337 8 16 355 344 195 184 165 195 232 252 254 272 262 227 248 334 248 271 260 237 206 245 239 246 244 262 250 260 266 172 216 298 308 300 301 307 314
8 348 9 54 52 30 3 6 346 347 341 3 21 127 199 220 218 272 241 287 299 290 275 342 244 239 255 290 298 286 275 253 245 245 256 245 271 278 289 298 300 293 296 310 317
33 49 11 360 21 13 352 322 319 327 256 293 260 238 241 242 243 240 245 267 268 256 278 263 249 251 261 267 275 272 265 262 256 250 254 269 279 284 296 298 282 283 297 309 314
66 29 14 45 340 341 282 295 320 350 294 318 239 292 280 282 250 285 267 268 247 220 269 211 262 270 263 273 272 276 268 260 254 255 261 270 274 288 295 250 261 282 298 306 311
44 91 22 207 347 330 333 356 319 337 294 264 291 330 277 268 293 284 269 260 236 224 218 252 252 279 277 289 290 272 260 250 250 248 254 258 276 289 270 276 290 294 300 300 299